This is the latest recevied weather packets stored in our database for station/object DL4MGC-10. If no packets are shown the sender has not sent any weather packets the latest 10 day(s).
| Time | Temp. | Humidity | Pressure | Rain* | Wind** | Luminosity | Snow |
|---|---|---|---|---|---|---|---|
| 1788268319 | 27.22° C | 53% | 1021.2 hPa | - | - | - | - |
| 1788267419 | 26.11° C | 54% | 1021.3 hPa | - | - | - | - |
| 1788266518 | 26.11° C | 56% | 1021.3 hPa | - | - | - | - |
| 1788265618 | 25.56° C | 57% | 1021.4 hPa | - | - | - | - |
| 1788264718 | 25.56° C | 58% | 1021.4 hPa | - | - | - | - |
| 1788263818 | 25° C | 59% | 1021.5 hPa | - | - | - | - |
| 1788262918 | 24.44° C | 62% | 1021.5 hPa | - | - | - | - |
| 1788262018 | 25° C | 59% | 1021.5 hPa | - | - | - | - |
| 1788261118 | 25° C | 61% | 1021.6 hPa | - | - | - | - |
| 1788260218 | 23.89° C | 60% | 1021.5 hPa | - | - | - | - |
| 1788259318 | 24.44° C | 61% | 1021.7 hPa | - | - | - | - |
| 1788258417 | 25° C | 60% | 1021.7 hPa | - | - | - | - |
| 1788257517 | 24.44° C | 61% | 1021.8 hPa | - | - | - | - |
| 1788256617 | 23.89° C | 64% | 1021.9 hPa | - | - | - | - |
| 1788255717 | 23.33° C | 62% | 1022 hPa | - | - | - | - |
| 1788254817 | 23.89° C | 65% | 1022.1 hPa | - | - | - | - |
| 1788253917 | 23.33° C | 64% | 1022.1 hPa | - | - | - | - |
| 1788253017 | 23.33° C | 67% | 1022.2 hPa | - | - | - | - |
| 1788252117 | 23.33° C | 66% | 1022.2 hPa | - | - | - | - |
| 1788251217 | 22.22° C | 71% | 1022.2 hPa | - | - | - | - |
| 1788250316 | 22.78° C | 69% | 1022.2 hPa | - | - | - | - |
| 1788249416 | 22.78° C | 68% | 1021.9 hPa | - | - | - | - |
| 1788248516 | 22.22° C | 69% | 1022 hPa | - | - | - | - |
| 1788247616 | 22.22° C | 70% | 1021.9 hPa | - | - | - | - |
| 1788246716 | 22.22° C | 70% | 1021.8 hPa | - | - | - | - |
* Rain since midnight (hover to see other rain measurements)
** Current wind speed in m/s (hover to see current wind gust speed)